Briefing drone pour Selles-sur-cher

Rechercher une autre localisation

Conditions de vol :


Nous sommes le : Samedi 27 février 2021
Il est 00:12 UTC (01:12 LT)

Lever de soleil : 06:10 UTC (07:10 LT)
Coucher de soleil : 18:02 UTC (19:02 LT)

Météo

L'essentiel des conditions de vol

VIGILANCE MÉTÉO FRANCE - Loir-et-Cher (41)
Pas de vigilances particulieres
CARTE TEMSI
CARTES DES FRONTS
METAR de LFYR
LFYR 270000Z AUTO 00000KT CAVOK M02/M02 Q1036

Date d'émission: 27/02/2021
Heure d'émission: 00:00 UTC
Vent: Calme
Visibilité horizontale: > 10 km
Plafond : Plafond et visibilité OK (CAVOK)
Température: -2 °C
Point de rosée: -2 °C
Humidité: 100%
Pression (QNH): 1036 hPa
TAF de LFYR
AMD LFYR 021630Z 0216/0312 CNL

Conditions prévues :

Heure d'émission : Bulletin éffectué le 02 à 16:00 UTC
Prévision : Valide du 02 a 16:00 UTC au 03 a 12:00 UTC
Nuages : à 0ft (0 m)
WEBCAM POUR SELLES-SUR-CHER

Réglementation

Voler en sécurité

CARTES AERONAUTIQUE 1/500.000
CARTES VAC (LFYR)
SUP AIP




Chargement des AIP...
NOTAM (SELLES-SUR-CHER + Terrain à proximité / FIR )




Chargement des NOTAMS...
CONTACT PREFECTURE 41
Loir-et-Cher (41) : pref-bpas@loir-et-cher.gouv.fr


Avertissement : Les données mises à disposition sont indicatives. Oxygène Drone ne pourra être tenu responsable de dégâts causés aux biens et aux personnes.